#timestamp,LO_Frequency,Hit,StdDev 
1538272815.5,286047000.1,N
1538272835.3,286047000.4,N
1538272855.1,286047000.2,N
1538272875.9,286047000.1,N
1538272895.7,286047001.0,N
1538272915.5,286047000.4,N
1538272935.4,286047001.1,N
1538272955.2,286046998.6,N
1538272975.1,286046998.3,N
1538272976.0,286046998.3,N
1538272995.8,286046998.4,N
1538273015.6,286046998.3,N
1538273035.5,286046996.5,N
1538273055.3,286046997.1,N
1538273075.1,286046996.9,N
1538273095.9,286046996.8,N
1538273115.7,286046996.8,N
1538273135.6,286046999.2,N
1538273155.4,286046996.6,N
1538273175.2,286046996.8,N
1538273195.1,286046999.5,N
1538273196.0,286046999.5,N
1538273215.8,286047001.0,N
1538273235.6,286046999.8,N
1538273255.5,286046998.5,N
1538273275.3,286047001.1,N
1538273295.2,286046998.1,N
1538273315.9,286047001.1,N
1538273335.7,286047000.9,N
1538273355.6,286047001.2,N
1538273375.4,286047001.0,N
1538273395.2,286047000.7,N
1538273415.1,286046998.4,N
1538273416.0,286046998.4,N
1538273435.8,286046999.3,N
1538273455.7,286047001.1,N
1538273475.5,286046998.8,N
1538273495.3,286047000.8,N
1538273515.2,286046998.7,N
1538273535.0,286046998.4,N
1538273535.9,286046998.4,N
1538273555.7,286047001.2,N
1538273575.6,286047000.6,N
1538273595.4,286046998.6,N
1538273615.3,286046998.2,N
1538273635.1,286046998.2,N
1538273636.0,286046998.2,N
1538273655.8,286046998.1,N
1538273675.7,286047001.1,N
1538273695.5,286047001.2,N
1538273715.3,286046998.5,N
1538273735.2,286046998.4,N
1538273755.0,286047000.9,N
1538273755.9,286047000.9,N
1538273775.8,286047001.2,N
1538273795.6,286046998.1,N
1538273815.4,286046999.0,N
1538273835.3,286046998.3,N
1538273855.1,286046998.6,N
1538273875.8,286047000.5,N
1538273895.7,286046998.1,N
1538273915.5,286046999.3,N
1538273935.4,286046999.6,N
1538273955.2,286046996.7,N
1538273975.0,286046996.9,N
1538273975.9,286046996.9,N
1538273995.8,286046997.5,N
1538274015.6,286046996.5,N
1538274035.4,286046999.2,N
1538274055.3,286046999.5,N
1538274075.1,286046997.4,N
1538274095.9,286046996.8,N
1538274115.7,286046997.1,N
1538274135.5,286046996.6,N
1538274155.4,286046996.9,N
1538274175.2,286046997.3,N
1538274195.0,286046997.3,N
1538274195.9,286046997.3,N
1538274215.8,286046997.5,N
1538274235.6,286046996.7,N
1538274255.5,286046999.5,N
1538274275.3,286046999.6,N
1538274295.1,286046999.4,N
1538274315.9,286046998.4,N
1538274335.7,286046998.7,N
1538274355.5,286046998.3,N
1538274375.4,286046998.2,N
1538274395.2,286047001.0,N
1538274415.0,286046998.6,N
1538274416.0,286046998.6,N
1538274435.8,286046998.7,N
1538274455.6,286046998.5,N
1538274475.5,286046998.1,N
1538274495.3,286046998.6,N
1538274515.1,286046998.5,N
1538274535.9,286046998.3,N
1538274555.7,286046999.3,N
1538274575.6,286046999.6,N
1538274595.4,286046997.8,N
1538274615.2,286046995.7,Y
1538274635.1,286046997.3,P
1538274636.0,286046997.3,P
1538274655.8,286046999.4,N
1538274675.6,286046999.2,N
1538274695.5,286046999.2,N
1538274715.3,286046997.2,Y
1538274735.2,286046998.1,P
1538274755.9,286047000.7,P
1538274775.7,286046999.0,N
1538274795.6,286046999.2,N
1538274845.4,286046998.1,E
1538274855.4,286046998.9,N
1538274875.2,286047000.2,P
1538274895.0,286047000.2,N
1538274895.9,286047000.2,N
1538274915.8,286047000.4,N
1538274935.6,286047000.1,N
1538274955.4,286047000.3,N
1538274975.3,286047000.5,N
1538274995.1,286047002.7,Y
1538275015.9,286047002.7,P
1538275035.7,286047002.4,N
1538275055.5,286047002.5,N
1538275075.4,286047002.1,N
1538275095.2,286047002.2,N
1538275115.0,286047001.3,N
1538275115.9,286047001.3,N
1538275135.8,286047004.4,Y
1538275155.6,286047000.4,P
1538275175.5,286046999.8,N
1538275195.3,286046999.8,N
1538275215.1,286047000.3,N
1538275235.9,286047001.0,N
1538275255.7,286047000.5,N
1538275275.5,286046998.6,N
1538275295.4,286046998.3,N
1538275315.2,286046998.7,N
1538275335.1,286046999.5,N
1538275336.0,286046999.5,N
1538275355.8,286046998.5,N
1538275375.6,286046999.4,N
1538275395.5,286046998.5,N
1538275415.3,286046999.1,N
1538275435.1,286046999.6,N
1538275455.9,286046996.6,Y
1538275475.7,286046996.6,P
1538275495.6,286046997.2,N
1538275515.4,286046995.2,P
1538275535.2,286046997.7,N
1538275555.1,286046995.0,Y
1538275556.0,286046995.0,P
1538275575.8,286046998.3,N
1538275595.7,286047002.4,N
1538275615.5,286047001.1,N
1538275635.3,286047000.8,N
1538275655.2,286047000.3,N
1538275675.0,286047000.4,N
1538275675.9,286047000.4,N
1538275695.7,286046999.9,N
1538275715.6,286046999.7,N
1538275735.4,286047000.6,N
1538275755.3,286047000.5,N
1538275775.1,286047000.2,N
1538275776.0,286047000.2,N
1538275795.8,286047000.1,N
1538275815.7,286046999.9,N
1538275835.5,286047002.5,N
1538275855.3,286046998.2,N
1538275875.2,286046998.6,N
1538275895.0,286046998.5,N
1538275895.9,286046998.5,N
1538275915.8,286046998.6,N
1538275935.6,286046998.2,N
1538275955.4,286046998.7,N
1538275975.3,286046999.2,N
1538275995.1,286046999.0,N
1538276045.9,286046998.1,E
1538276055.8,286046999.8,N
1538276075.6,286047001.9,P
1538276095.5,286047002.4,N
1538276115.3,286047002.8,N
1538276135.1,286047004.4,Y
1538276155.9,286047000.5,P
1538276175.7,286046998.1,P
1538276195.6,286047001.2,N
1538276215.4,286047000.9,N
1538276235.2,286047000.4,N
1538276255.1,286046999.7,N
1538276256.0,286046999.7,N
1538276275.8,286047002.8,N
1538276295.6,286047000.2,N
1538276315.5,286047000.5,N
1538276335.3,286047000.7,N
1538276355.1,286046998.7,N
1538276375.9,286046998.4,N
1538276395.7,286047001.1,N
